TimeCST,TemperatureF,Dew PointF,Humidity,Sea Level PressureIn,VisibilityMPH,Wind Direction,Wind SpeedMPH,Gust SpeedMPH,PrecipitationIn,Events,Conditions,WindDirDegrees,DateUTC
12:00 AM,63,56,72,29.84,,NNE,4.6,,,,,30,2013-08-27 06:00:00
12:00 AM,63.3,56.3,78,29.84,-9999.0,NNE,4.6,-,N/A,,Unknown,30,2013-08-27 06:00:00
1:00 AM,61.7,56.7,84,29.84,-9999.0,NNE,5.8,-,N/A,,Unknown,20,2013-08-27 07:00:00
2:00 AM,64.8,58.6,81,29.89,-9999.0,NE,8.1,-,N/A,,Unknown,50,2013-08-27 08:00:00
3:00 AM,74.1,49.5,42,29.89,-9999.0,NE,23.0,29.9,N/A,,Unknown,50,2013-08-27 09:00:00
4:00 AM,71.4,50.5,48,29.90,-9999.0,NE,15.0,-,N/A,,Unknown,50,2013-08-27 10:00:00
5:00 AM,66.2,53.2,63,29.91,-9999.0,ENE,5.8,-,N/A,,Unknown,60,2013-08-27 11:00:00
6:00 AM,64,55,66,29.89,,North,4.6,,,,,10,2013-08-27 12:00:00
6:00 AM,63.7,55.4,74,29.89,-9999.0,North,4.6,-,N/A,,Unknown,10,2013-08-27 12:00:00
7:00 AM,61.2,55.0,80,29.92,-9999.0,NNE,6.9,-,N/A,,Unknown,20,2013-08-27 13:00:00
8:00 AM,70.2,51.1,51,29.93,-9999.0,WNW,5.8,-,N/A,,Unknown,290,2013-08-27 14:00:00
9:00 AM,78.4,46.8,33,29.94,-9999.0,West,9.2,-,N/A,,Unknown,270,2013-08-27 15:00:00
10:00 AM,82.6,40.5,22,29.94,-9999.0,West,16.1,-,N/A,,Unknown,270,2013-08-27 16:00:00
11:00 AM,84.6,41.7,22,29.95,-9999.0,West,10.4,-,N/A,,Unknown,280,2013-08-27 17:00:00
12:00 PM,87,40,11,29.94,,NNE,11.5,,,,,30,2013-08-27 18:00:00
12:00 PM,87.4,39.7,19,29.94,-9999.0,NNE,11.5,18.4,N/A,,Unknown,30,2013-08-27 18:00:00
1:00 PM,89.2,40.1,18,29.93,-9999.0,NNE,10.4,-,N/A,,Unknown,30,2013-08-27 19:00:00
2:00 PM,89.8,38.1,16,29.91,-9999.0,NNE,12.7,20.7,N/A,,Unknown,30,2013-08-27 20:00:00
3:00 PM,92.3,36.3,14,29.90,-9999.0,NNE,12.7,19.6,N/A,,Unknown,30,2013-08-27 21:00:00
4:00 PM,91.9,34.7,13,29.90,-9999.0,NNE,11.5,-,N/A,,Unknown,30,2013-08-27 22:00:00
5:00 PM,91.2,35.4,14,29.90,-9999.0,NNE,9.2,-,N/A,,Unknown,30,2013-08-27 23:00:00
6:00 PM,90,36,7,29.90,,NE,5.8,,,,,40,2013-08-28 00:00:00
6:00 PM,89.8,35.6,15,29.90,-9999.0,NE,5.8,-,N/A,,Unknown,40,2013-08-28 00:00:00
7:00 PM,83.8,45.9,26,29.89,-9999.0,NNE,2.3,-,N/A,,Unknown,20,2013-08-28 01:00:00
8:00 PM,74.5,54.1,49,29.90,-9999.0,East,3.5,-,N/A,,Unknown,80,2013-08-28 02:00:00
9:00 PM,65.7,51.4,60,29.91,-9999.0,NNE,10.4,-,N/A,,Unknown,30,2013-08-28 03:00:00
10:00 PM,61.5,50.4,67,29.92,-9999.0,NE,6.9,-,N/A,,Unknown,50,2013-08-28 04:00:00
11:00 PM,57.0,48.7,74,29.93,-9999.0,SSE,8.1,-,N/A,,Unknown,160,2013-08-28 05:00:00